151  
ASUS41 KGYX 200910  
RWRGYX  
WEATHER ROUNDUP FOR MAINE AND NEW HAMPSHIRE  
NATIONAL WEATHER SERVICE GRAY ME  
500 AM EDT THU JUN 20 2024  
 
* THESE REPORTS ARE NOT UNDER NWS QUALITY CONTROL AND/OR DO NOT  
REPORT WEATHER SUCH AS PRECIPITATION AND FOG.
 
 
MEZ002-005-006-010-012-015-018-020-021-024-026-027-029-201000-  
MAINE  
 
CITY SKY/WX TMP DP RH WIND PRES REMARKS
 
PORTLAND PTCLDY 75 71 87 W5 30.16S  
SANFORD* CLEAR 72 69 90 CALM 30.20R  
BAR HARBOR CLEAR 66 65 96 SW3 30.15R  
WISCASSET CLEAR 67 66 97 CALM 30.18R  
ROCKLAND* CLEAR 69 68 96 CALM 30.16R  
FRYEBURG* CLEAR 73 70 90 SW3 30.18S  
LEWISTONAUBURN CLEAR N/A N/A N/A CALM 30.17S HAZE  
AUGUSTA CLEAR 71 69 93 CALM 30.17R  
WATERVILLE* CLEAR 70 70 100 SW6 30.14R FOG  
BANGOR MOCLDY 69 67 93 SW3 30.13R  
GREENVILLE N/A 77 67 71 NW14G24 30.16R  
MILLINOCKET MOCLDY 81 69 67 CALM 30.11R  
HOULTON MOCLDY 77 69 76 SW7 30.05S  
PRESQUE ISLE PTCLDY 79 71 76 SW9 30.05R  
FRENCHVILLE PTCLDY 77 68 73 W9 30.04R  
CARIBOU CLEAR 77 70 79 SW5 30.03R  

 
 
NHZ002-005-008-009-011-012-014-201000-  
NEW HAMPSHIRE  
 
CITY SKY/WX TMP DP RH WIND PRES REMARKS
 
PORTSMOUTH* MOCLDY 75 70 85 SW5 30.19R  
ROCHESTER* CLEAR 73 68 84 CALM 30.19S  
NASHUA CLEAR 72 32 23 CALM 30.23R  
MANCHESTER MOCLDY 71 68 90 S3 30.21S  
CONCORD CLEAR 69 68 96 CALM 30.22S  
LACONIA* CLEAR 74 71 91 SW3 30.22S  
BERLIN CLEAR 66 65 96 CALM 30.24S FOG  
WHITEFIELD* CLEAR 64 63 96 CALM 30.26R  
JAFFREY* PTCLDY 71 68 90 SE5 30.28S  
KEENE* MOCLDY 66 66 100 CALM 30.26S FOG  
LEBANON* CLEAR 71 69 93 S3 30.24S  
MT WASHINGTON* FOG 59 59 100 NW55G62 N/A VSB 1/16  

 
 
VTZ005-007-008-201000-  
VERMONT  
 
CITY SKY/WX TMP DP RH WIND PRES REMARKS
 
ST JOHNSBURY* N/A 70 67 90 MISG 30.22S  
MONTPELIER CLEAR 73 68 84 CALM 30.29S  
BURLINGTON CLEAR 79 71 76 SW6 30.21F  

 
 
MAZ007-012-024-CTZ003-RIZ002-NYZ038-NYZ072-201000-  
SOUTHERN NEW ENGLAND AND NY  
 
CITY SKY/WX TMP DP RH WIND PRES REMARKS
 
BOSTON MOCLDY 74 58 57 SW13 30.23S  
WORCESTER CLEAR 70 60 70 W13 30.29R  
NANTUCKET CLEAR 65 65 100 SW13 30.30S  
PROVIDENCE CLEAR 69 64 84 SW6 30.28S  
HARTFORD MOCLDY 72 61 68 S7 30.27S  
ALBANY MOCLDY 76 66 71 CALM 30.26S  
NEW YORK CITY PTCLDY 74 60 61 SW8 30.29S  

 
 
ANZ081-ANZ082-ANZ150-NHZ014-MEZ023>029-201000-  
COASTAL MARINE OBSERVATIONS  
 
STATION/POSITION TIME TEMP WIND PRES WAVE
 
AIR SEA DIR/SP/G HT/PER  
(UTC) (F) (DEG/KT/KT) (MB) (FT/S)  
MOUNT DESERT ROC 0900 58 220/ 19/ 19 1020.8R  
MATINICUS ROCK* 0800 63 230/ 18/ 19 1021.2S  
ISLE OF SHOALS* 0800 76 230/ 15/ 15 1021.6F  
JEFFREYS LEDGE* 0826 64 N/A 3/ 5  
GEORGES BANK BUO 0840 62 59 220/ 10/ 12 1027.6R  

 
   
............KEY...........
 
 
WCI - WIND CHILL  
TC - TEMPERATURE IN CELSIUS  
VSB - VISIBILITY IN MILES  
HX - HEAT INDEX  
FAIR- INDICATES FEW OR NO CLOUDS BELOW 12,000 FT, WITH NO  
SIGNIFICANT WEATHER AND/OR S TO VISIBILITY.  
 
 
 
CLICK HERE TO GO TO PREVIOUS BULLETINS.

The Nexlab ME Page
The Nexlab NH Page Main Text Page